,,,PA_Meas_PMT16A,,PR_Meas_QMR101_102,,RH_Meas_QMH101,,SR_Meas_QMS101,,TA_Meas_QMH101,,GenWind,,GenWind,
date,time,status,PA,status,PR,status,RH,status,SR,status,TA,status,DirAvg,status,SpdAvg,
2012-10-12, 00:00:04,VALID,1009.86,VALID,0,VALID,104,VALID,0.112112,VALID,24.9589,VALID,9,VALID,0,
2012-10-12, 00:01:04,VALID,1009.87,VALID,0,VALID,104,VALID,0,VALID,24.9998,VALID,8,VALID,0,
2012-10-12, 00:02:04,VALID,1009.87,VALID,0,VALID,104,VALID,0,VALID,24.9784,VALID,8,VALID,0,
2012-10-12, 00:03:04,VALID,1009.87,VALID,0,VALID,104,VALID,0,VALID,25.0193,VALID,9,VALID,0,
2012-10-12, 00:04:04,VALID,1009.87,VALID,0,VALID,104,VALID,0,VALID,24.9998,VALID,8,VALID,0,
2012-10-12, 00:05:04,VALID,1009.87,VALID,0,VALID,104,VALID,0,VALID,25.0193,VALID,9,VALID,0,
2012-10-12, 00:06:04,VALID,1009.85,VALID,0,VALID,104,VALID,0,VALID,24.9979,VALID,8,VALID,0,
2012-10-12, 00:07:04,VALID,1009.82,VALID,0,VALID,104,VALID,0,VALID,24.9998,VALID,8,VALID,0,
2012-10-12, 00:08:04,VALID,1009.86,VALID,0,VALID,104,VALID,0,VALID,24.9979,VALID,9,VALID,0,
2012-10-12, 00:09:04,VALID,1009.86,VALID,0,VALID,104,VALID,0,VALID,24.9998,VALID,9,VALID,0,
2012-10-12, 00:10:04,VALID,1009.83,VALID,0,VALID,104,VALID,0,VALID,24.9979,VALID,8,VALID,0,
2012-10-12, 00:11:04,VALID,1009.82,VALID,0,VALID,104,VALID,0.112112,VALID,25.0193,VALID,9,VALID,0,
2012-10-12, 00:12:04,VALID,1009.81,VALID,0,VALID,104,VALID,0.112112,VALID,24.9979,VALID,9,VALID,0,
2012-10-12, 00:13:04,VALID,1009.78,VALID,0,VALID,104,VALID,0,VALID,24.9998,VALID,8,VALID,0,
2012-10-12, 00:14:04,VALID,1009.78,VALID,0,VALID,104,VALID,0,VALID,24.9998,VALID,9,VALID,0,
2012-10-12, 00:15:04,VALID,1009.76,VALID,0,VALID,104,VALID,0,VALID,24.9979,VALID,8,VALID,0,
2012-10-12, 00:16:04,VALID,1009.76,VALID,0,VALID,104,VALID,0,VALID,25.0193,VALID,9,VALID,0,
2012-10-12, 00:17:04,VALID,1009.73,VALID,0,VALID,104,VALID,0.112112,VALID,24.9998,VALID,8,VALID,0,
2012-10-12, 00:18:04,VALID,1009.77,VALID,0,VALID,104,VALID,0,VALID,24.9998,VALID,9,VALID,0,
2012-10-12, 00:19:04,VALID,1009.73,VALID,0,VALID,104,VALID,0,VALID,24.9784,VALID,9,VALID,0,
2012-10-12, 00:20:04,VALID,1009.7,VALID,0,VALID,104,VALID,0,VALID,24.9979,VALID,8,VALID,0,
2012-10-12, 00:21:04,VALID,1009.69,VALID,0,VALID,104,VALID,0,VALID,24.9998,VALID,8,VALID,0,
2012-10-12, 00:22:04,VALID,1009.66,VALID,0,VALID,104,VALID,0,VALID,25.0193,VALID,9,VALID,0,
2012-10-12, 00:23:04,VALID,1009.62,VALID,0,VALID,104,VALID,0,VALID,24.9998,VALID,9,VALID,0,
2012-10-12, 00:24:04,VALID,1009.61,VALID,0,VALID,104,VALID,0,VALID,24.9998,VALID,8,VALID,0,
2012-10-12, 00:25:04,VALID,1009.56,VALID,0,VALID,104,VALID,0,VALID,24.9589,VALID,9,VALID,0,
2012-10-12, 00:26:04,VALID,1009.55,VALID,0,VALID,104,VALID,0,VALID,24.9784,VALID,8,VALID,0,
2012-10-12, 00:27:04,VALID,1009.54,VALID,0,VALID,104,VALID,0,VALID,24.9998,VALID,8,VALID,0,
2012-10-12, 00:28:04,VALID,1009.52,VALID,0,VALID,104,VALID,0,VALID,24.9998,VALID,9,VALID,0,
2012-10-12, 00:29:04,VALID,1009.54,VALID,0,VALID,104,VALID,0,VALID,24.9784,VALID,9,VALID,0,
2012-10-12, 00:30:04,VALID,1009.54,VALID,0,VALID,104,VALID,0,VALID,24.9589,VALID,8,VALID,0,
2012-10-12, 00:31:04,VALID,1009.51,VALID,0,VALID,104,VALID,0,VALID,24.9608,VALID,9,VALID,0,
2012-10-12, 00:32:04,VALID,1009.5,VALID,0,VALID,104,VALID,0,VALID,24.9608,VALID,10,VALID,0,
2012-10-12, 00:33:04,VALID,1009.49,VALID,0,VALID,104,VALID,0,VALID,24.9803,VALID,9,VALID,0,
2012-10-12, 00:34:04,VALID,1009.49,VALID,0,VALID,104,VALID,0,VALID,24.9608,VALID,8,VALID,0,
2012-10-12, 00:35:04,VALID,1009.43,VALID,0,VALID,104,VALID,0,VALID,24.9413,VALID,9,VALID,0,
2012-10-12, 00:36:04,VALID,1009.41,VALID,0,VALID,104,VALID,0,VALID,24.9413,VALID,9,VALID,0,
2012-10-12, 00:37:04,VALID,1009.4,VALID,0,VALID,104,VALID,0,VALID,24.9413,VALID,9,VALID,0,
2012-10-12, 00:38:04,VALID,1009.41,VALID,0,VALID,104,VALID,0,VALID,24.9199,VALID,8,VALID,0,
2012-10-12, 00:39:04,VALID,1009.41,VALID,0,VALID,104,VALID,0,VALID,24.9218,VALID,9,VALID,0,
2012-10-12, 00:40:04,VALID,1009.38,VALID,0,VALID,104,VALID,0,VALID,24.9199,VALID,8,VALID,0,
2012-10-12, 00:41:04,VALID,1009.39,VALID,0,VALID,104,VALID,0,VALID,24.9218,VALID,8,VALID,0,
2012-10-12, 00:42:04,VALID,1009.39,VALID,0,VALID,104,VALID,0,VALID,24.9413,VALID,8,VALID,0,
2012-10-12, 00:43:04,VALID,1009.41,VALID,0,VALID,104,VALID,0,VALID,24.9199,VALID,9,VALID,0,
2012-10-12, 00:44:04,VALID,1009.4,VALID,0,VALID,104,VALID,0,VALID,24.9199,VALID,8,VALID,0,
2012-10-12, 00:45:04,VALID,1009.4,VALID,0,VALID,104,VALID,0,VALID,24.9004,VALID,9,VALID,0,
2012-10-12, 00:46:04,VALID,1009.38,VALID,0,VALID,104,VALID,0,VALID,24.9004,VALID,9,VALID,0,
2012-10-12, 00:47:04,VALID,1009.38,VALID,0,VALID,104,VALID,0,VALID,24.8791,VALID,8,VALID,0,
2012-10-12, 00:48:04,VALID,1009.37,VALID,0,VALID,104,VALID,0,VALID,24.8809,VALID,8,VALID,0,
2012-10-12, 00:49:05,VALID,1009.31,VALID,0,VALID,104,VALID,0,VALID,24.8809,VALID,9,VALID,0,
2012-10-12, 00:50:05,VALID,1009.32,VALID,0,VALID,104,VALID,0,VALID,24.9004,VALID,9,VALID,0,
2012-10-12, 00:51:05,VALID,1009.29,VALID,0,VALID,104,VALID,0,VALID,24.9023,VALID,8,VALID,0,
2012-10-12, 00:52:05,VALID,1009.3,VALID,0,VALID,104,VALID,0,VALID,24.8809,VALID,9,VALID,0,
2012-10-12, 00:53:05,VALID,1009.26,VALID,0,VALID,104,VALID,0,VALID,24.9218,VALID,9,VALID,0,
2012-10-12, 00:54:05,VALID,1009.26,VALID,0,VALID,104,VALID,0,VALID,24.9218,VALID,9,VALID,0,
2012-10-12, 00:55:05,VALID,1009.23,VALID,0,VALID,104,VALID,0,VALID,24.9004,VALID,9,VALID,0,
2012-10-12, 00:56:05,VALID,1009.22,VALID,0,VALID,104,VALID,0,VALID,24.9218,VALID,9,VALID,0,
2012-10-12, 00:57:05,VALID,1009.18,VALID,0,VALID,104,VALID,0,VALID,24.9218,VALID,9,VALID,0,
2012-10-12, 00:58:05,VALID,1009.17,VALID,0,VALID,104,VALID,0,VALID,24.9218,VALID,9,VALID,0,
2012-10-12, 00:59:05,VALID,1009.18,VALID,0,VALID,104,VALID,0,VALID,24.9004,VALID,8,VALID,0,
2012-10-12, 01:00:05,VALID,1009.17,VALID,0,VALID,104,VALID,0,VALID,24.9218,VALID,9,VALID,0,
2012-10-12, 01:01:05,VALID,1009.16,VALID,0,VALID,104,VALID,0,VALID,24.9004,VALID,8,VALID,0,
2012-10-12, 01:02:05,VALID,1009.18,VALID,0,VALID,104,VALID,0,VALID,24.8809,VALID,9,VALID,0,
2012-10-12, 01:03:05,VALID,1009.16,VALID,0,VALID,104,VALID,0,VALID,24.8809,VALID,9,VALID,0,
2012-10-12, 01:04:05,VALID,1009.15,VALID,0,VALID,104,VALID,0.112112,VALID,24.8809,VALID,9,VALID,0,
2012-10-12, 01:05:05,VALID,1009.16,VALID,0,VALID,104,VALID,0,VALID,24.9023,VALID,9,VALID,0,
2012-10-12, 01:06:05,VALID,1009.14,VALID,0,VALID,104,VALID,0,VALID,24.8809,VALID,9,VALID,0,
2012-10-12, 01:07:05,VALID,1009.08,VALID,0,VALID,104,VALID,0,VALID,24.8828,VALID,9,VALID,0,
2012-10-12, 01:08:05,VALID,1009.08,VALID,0,VALID,104,VALID,0,VALID,24.8615,VALID,9,VALID,0,
2012-10-12, 01:09:05,VALID,1009.1,VALID,0,VALID,104,VALID,0,VALID,24.842,VALID,9,VALID,0,
2012-10-12, 01:10:05,VALID,1009.06,VALID,0,VALID,104,VALID,0,VALID,24.8633,VALID,9,VALID,0,
2012-10-12, 01:11:05,VALID,1009.07,VALID,0,VALID,104,VALID,0,VALID,24.842,VALID,9,VALID,0,
2012-10-12, 01:12:05,VALID,1009.05,VALID,0,VALID,104,VALID,0,VALID,24.8438,VALID,8,VALID,0,
2012-10-12, 01:13:05,VALID,1009.03,VALID,0,VALID,104,VALID,0,VALID,24.8225,VALID,9,VALID,0,
2012-10-12, 01:14:05,VALID,1009.05,VALID,0,VALID,104,VALID,0,VALID,24.8438,VALID,9,VALID,0,
2012-10-12, 01:15:05,VALID,1009.05,VALID,0,VALID,104,VALID,0,VALID,24.803,VALID,9,VALID,0,
2012-10-12, 01:16:05,VALID,1009.01,VALID,0,VALID,104,VALID,0,VALID,24.7835,VALID,9,VALID,0,
2012-10-12, 01:17:05,VALID,1009.01,VALID,0,VALID,104,VALID,0,VALID,24.7835,VALID,8,VALID,0,
2012-10-12, 01:18:05,VALID,1008.99,VALID,0,VALID,104,VALID,0,VALID,24.764,VALID,9,VALID,0,
2012-10-12, 01:19:05,VALID,1009,VALID,0,VALID,104,VALID,0,VALID,24.764,VALID,9,VALID,0,
2012-10-12, 01:20:05,VALID,1008.94,VALID,0,VALID,104,VALID,0,VALID,24.764,VALID,9,VALID,0,
2012-10-12, 01:21:05,VALID,1008.97,VALID,0,VALID,104,VALID,0,VALID,24.7659,VALID,9,VALID,0,
2012-10-12, 01:22:05,VALID,1009,VALID,0,VALID,104,VALID,0,VALID,24.7854,VALID,9,VALID,0,
2012-10-12, 01:23:05,VALID,1008.98,VALID,0,VALID,104,VALID,0,VALID,24.7659,VALID,9,VALID,0,
2012-10-12, 01:24:05,VALID,1008.95,VALID,0,VALID,104,VALID,0,VALID,24.764,VALID,9,VALID,0,
2012-10-12, 01:25:05,VALID,1008.95,VALID,0,VALID,104,VALID,0,VALID,24.7445,VALID,9,VALID,0,
2012-10-12, 01:26:05,VALID,1008.93,VALID,0,VALID,104,VALID,0.112112,VALID,24.7445,VALID,9,VALID,0,
2012-10-12, 01:27:05,VALID,1008.94,VALID,0,VALID,104,VALID,0,VALID,24.725,VALID,8,VALID,0,
2012-10-12, 01:28:05,VALID,1008.92,VALID,0,VALID,104,VALID,0,VALID,24.7464,VALID,9,VALID,0,
2012-10-12, 01:29:05,VALID,1008.89,VALID,0,VALID,104,VALID,0,VALID,24.7269,VALID,9,VALID,0,
2012-10-12, 01:30:05,VALID,1008.89,VALID,0,VALID,104,VALID,0,VALID,24.725,VALID,8,VALID,0,
2012-10-12, 01:31:05,VALID,1008.88,VALID,0,VALID,104,VALID,0,VALID,24.7055,VALID,9,VALID,0,
2012-10-12, 01:32:05,VALID,1008.87,VALID,0,VALID,104,VALID,0,VALID,24.7074,VALID,8,VALID,0,
2012-10-12, 01:33:05,VALID,1008.92,VALID,0,VALID,104,VALID,0.112112,VALID,24.686,VALID,8,VALID,0,
2012-10-12, 01:34:05,VALID,1008.91,VALID,0,VALID,104,VALID,0,VALID,24.7074,VALID,9,VALID,0,
2012-10-12, 01:35:05,VALID,1008.89,VALID,0,VALID,104,VALID,0,VALID,24.6666,VALID,8,VALID,0,
2012-10-12, 01:36:05,VALID,1008.88,VALID,0,VALID,104,VALID,0,VALID,24.6684,VALID,9,VALID,0,
2012-10-12, 01:37:05,VALID,1008.85,VALID,0,VALID,104,VALID,0,VALID,24.6684,VALID,9,VALID,0,
2012-10-12, 01:38:05,VALID,1008.85,VALID,0,VALID,104,VALID,0,VALID,24.6276,VALID,9,VALID,0,
2012-10-12, 01:39:05,VALID,1008.83,VALID,0,VALID,104,VALID,0,VALID,24.6684,VALID,9,VALID,0,
2012-10-12, 01:40:05,VALID,1008.82,VALID,0,VALID,104,VALID,0,VALID,24.6471,VALID,9,VALID,0,
2012-10-12, 01:41:05,VALID,1008.86,VALID,0,VALID,104,VALID,0,VALID,24.6276,VALID,9,VALID,0,
2012-10-12, 01:42:05,VALID,1008.85,VALID,0,VALID,104,VALID,0,VALID,24.6489,VALID,8,VALID,0,
2012-10-12, 01:43:05,VALID,1008.83,VALID,0,VALID,104,VALID,0,VALID,24.6294,VALID,9,VALID,0,
2012-10-12, 01:44:05,VALID,1008.84,VALID,0,VALID,104,VALID,0.112112,VALID,24.6294,VALID,9,VALID,0,
2012-10-12, 01:45:05,VALID,1008.82,VALID,0,VALID,104,VALID,0,VALID,24.6294,VALID,9,VALID,0,
2012-10-12, 01:46:05,VALID,1008.82,VALID,0,VALID,104,VALID,0,VALID,24.6081,VALID,9,VALID,0,
2012-10-12, 01:47:05,VALID,1008.8,VALID,0,VALID,104,VALID,0,VALID,24.6294,VALID,9,VALID,0,
2012-10-12, 01:48:05,VALID,1008.78,VALID,0,VALID,104,VALID,0,VALID,24.5886,VALID,9,VALID,0,
2012-10-12, 01:49:05,VALID,1008.74,VALID,0,VALID,104,VALID,0,VALID,24.6081,VALID,9,VALID,0,
2012-10-12, 01:50:05,VALID,1008.71,VALID,0,VALID,104,VALID,0,VALID,24.6099,VALID,9,VALID,0,
2012-10-12, 01:51:05,VALID,1008.72,VALID,0,VALID,104,VALID,0,VALID,24.6099,VALID,9,VALID,0,
2012-10-12, 01:52:05,VALID,1008.72,VALID,0,VALID,104,VALID,0,VALID,24.5905,VALID,9,VALID,0,
2012-10-12, 01:53:05,VALID,1008.7,VALID,0,VALID,104,VALID,0,VALID,24.5905,VALID,8,VALID,0,
2012-10-12, 01:54:05,VALID,1008.71,VALID,0,VALID,104,VALID,0,VALID,24.5905,VALID,9,VALID,0,
2012-10-12, 01:55:05,VALID,1008.69,VALID,0,VALID,104,VALID,0,VALID,24.5905,VALID,9,VALID,0,
2012-10-12, 01:56:05,VALID,1008.68,VALID,0,VALID,104,VALID,0,VALID,24.5496,VALID,9,VALID,0,
2012-10-12, 01:57:05,VALID,1008.7,VALID,0,VALID,104,VALID,0,VALID,24.571,VALID,9,VALID,0,
2012-10-12, 01:58:05,VALID,1008.66,VALID,0,VALID,104,VALID,0,VALID,24.571,VALID,9,VALID,0,
2012-10-12, 01:59:05,VALID,1008.61,VALID,0,VALID,104,VALID,0,VALID,24.5515,VALID,9,VALID,0,
2012-10-12, 02:00:05,VALID,1008.6,VALID,0,VALID,104,VALID,0,VALID,24.5125,VALID,9,VALID,0,
2012-10-12, 02:01:05,VALID,1008.6,VALID,0,VALID,104,VALID,0,VALID,24.4717,VALID,9,VALID,0,
2012-10-12, 02:02:05,VALID,1008.58,VALID,0,VALID,104,VALID,0,VALID,24.4735,VALID,9,VALID,0,
2012-10-12, 02:03:05,VALID,1008.54,VALID,0,VALID,104,VALID,0,VALID,24.454,VALID,9,VALID,0,
2012-10-12, 02:04:05,VALID,1008.54,VALID,0,VALID,104,VALID,0,VALID,24.4345,VALID,9,VALID,0,
2012-10-12, 02:05:05,VALID,1008.53,VALID,0,VALID,104,VALID,0,VALID,24.3937,VALID,9,VALID,0,
2012-10-12, 02:06:05,VALID,1008.52,VALID,0,VALID,104,VALID,0,VALID,24.3937,VALID,9,VALID,0,
2012-10-12, 02:07:05,VALID,1008.51,VALID,0,VALID,104,VALID,0,VALID,24.3937,VALID,9,VALID,0,
2012-10-12, 02:08:05,VALID,1008.5,VALID,0,VALID,104,VALID,0.112112,VALID,24.415,VALID,9,VALID,0,
2012-10-12, 02:09:05,VALID,1008.51,VALID,0,VALID,104,VALID,0,VALID,24.3956,VALID,9,VALID,0,
2012-10-12, 02:10:05,VALID,1008.53,VALID,0,VALID,104,VALID,0,VALID,24.3956,VALID,9,VALID,0,
2012-10-12, 02:11:05,VALID,1008.52,VALID,0,VALID,104,VALID,0,VALID,24.415,VALID,9,VALID,0,
2012-10-12, 02:12:05,VALID,1008.5,VALID,0,VALID,104,VALID,0,VALID,24.3956,VALID,9,VALID,0,
2012-10-12, 02:13:05,VALID,1008.54,VALID,0,VALID,104,VALID,0,VALID,24.3547,VALID,9,VALID,0,
2012-10-12, 02:14:05,VALID,1008.56,VALID,0,VALID,104,VALID,0,VALID,24.3956,VALID,9,VALID,0,
2012-10-12, 02:15:05,VALID,1008.56,VALID,0,VALID,104,VALID,0,VALID,24.3761,VALID,9,VALID,0,
2012-10-12, 02:16:05,VALID,1008.55,VALID,0,VALID,104,VALID,0,VALID,24.3352,VALID,9,VALID,0,
2012-10-12, 02:17:05,VALID,1008.56,VALID,0,VALID,104,VALID,0,VALID,24.3158,VALID,9,VALID,0,
2012-10-12, 02:18:05,VALID,1008.56,VALID,0,VALID,104,VALID,0,VALID,24.2963,VALID,9,VALID,0,
2012-10-12, 02:19:05,VALID,1008.56,VALID,0,VALID,104,VALID,0,VALID,24.2768,VALID,9,VALID,0,
2012-10-12, 02:20:05,VALID,1008.58,VALID,0,VALID,104,VALID,0,VALID,24.2786,VALID,9,VALID,0,
2012-10-12, 02:21:05,VALID,1008.58,VALID,0,VALID,104,VALID,0.112112,VALID,24.2378,VALID,8,VALID,0,
2012-10-12, 02:22:05,VALID,1008.58,VALID,0,VALID,104,VALID,0,VALID,24.2202,VALID,9,VALID,0,
2012-10-12, 02:23:05,VALID,1008.61,VALID,0,VALID,104,VALID,0,VALID,24.2007,VALID,8,VALID,0,
2012-10-12, 02:24:05,VALID,1008.61,VALID,0,VALID,104,VALID,0,VALID,24.1599,VALID,8,VALID,0,
2012-10-12, 02:25:05,VALID,1008.64,VALID,0,VALID,104,VALID,0,VALID,24.1617,VALID,9,VALID,0,
2012-10-12, 02:26:05,VALID,1008.63,VALID,0,VALID,104,VALID,0,VALID,24.1422,VALID,9,VALID,0,
2012-10-12, 02:27:05,VALID,1008.62,VALID,0,VALID,104,VALID,0,VALID,24.1422,VALID,9,VALID,0,
2012-10-12, 02:28:05,VALID,1008.62,VALID,0,VALID,104,VALID,0,VALID,24.1422,VALID,9,VALID,0,
2012-10-12, 02:29:05,VALID,1008.65,VALID,0,VALID,104,VALID,0,VALID,24.1209,VALID,9,VALID,0,
2012-10-12, 02:30:05,VALID,1008.64,VALID,0,VALID,104,VALID,0,VALID,24.1209,VALID,9,VALID,0,
2012-10-12, 02:31:05,VALID,1008.64,VALID,0,VALID,104,VALID,0,VALID,24.1014,VALID,9,VALID,0,
2012-10-12, 02:32:05,VALID,1008.59,VALID,0,VALID,104,VALID,0.112112,VALID,24.0819,VALID,9,VALID,0,
2012-10-12, 02:33:05,VALID,1008.6,VALID,0,VALID,104,VALID,0.112112,VALID,24.0624,VALID,9,VALID,0,
2012-10-12, 02:34:05,VALID,1008.6,VALID,0,VALID,104,VALID,0,VALID,24.0624,VALID,9,VALID,0,
2012-10-12, 02:35:05,VALID,1008.61,VALID,0,VALID,104,VALID,0,VALID,24.0819,VALID,9,VALID,0,
2012-10-12, 02:36:05,VALID,1008.59,VALID,0,VALID,104,VALID,0.112112,VALID,24.1014,VALID,8,VALID,0,
2012-10-12, 02:37:05,VALID,1008.61,VALID,0,VALID,104,VALID,0.112112,VALID,24.1209,VALID,8,VALID,0,
2012-10-12, 02:38:05,VALID,1008.59,VALID,0,VALID,104,VALID,0,VALID,24.1209,VALID,9,VALID,0,
2012-10-12, 02:39:05,VALID,1008.6,VALID,0,VALID,104,VALID,0,VALID,24.1209,VALID,9,VALID,0,
2012-10-12, 02:40:05,VALID,1008.59,VALID,0,VALID,104,VALID,0,VALID,24.1209,VALID,8,VALID,0,
2012-10-12, 02:41:05,VALID,1008.58,VALID,0,VALID,104,VALID,0.112112,VALID,24.1191,VALID,9,VALID,0,
2012-10-12, 02:42:05,VALID,1008.6,VALID,0,VALID,104,VALID,0.112112,VALID,24.1209,VALID,9,VALID,0,
2012-10-12, 02:43:05,VALID,1008.58,VALID,0,VALID,104,VALID,0,VALID,24.1209,VALID,8,VALID,0,
2012-10-12, 02:44:05,VALID,1008.6,VALID,0,VALID,104,VALID,0,VALID,24.1014,VALID,9,VALID,0,
2012-10-12, 02:45:05,VALID,1008.59,VALID,0,VALID,104,VALID,0.112112,VALID,24.1014,VALID,8,VALID,0.253125,
2012-10-12, 02:46:05,VALID,1008.61,VALID,0,VALID,104,VALID,0,VALID,24.0819,VALID,8,VALID,0,
2012-10-12, 02:47:05,VALID,1008.61,VALID,0,VALID,104,VALID,0.112112,VALID,24.0819,VALID,9,VALID,0,
2012-10-12, 02:48:05,VALID,1008.65,VALID,0,VALID,104,VALID,0.112112,VALID,24.0819,VALID,9,VALID,0,
2012-10-12, 02:49:05,VALID,1008.64,VALID,0,VALID,104,VALID,0.112112,VALID,24.0819,VALID,8,VALID,0,
2012-10-12, 02:50:05,VALID,1008.66,VALID,0,VALID,104,VALID,0.112112,VALID,24.0819,VALID,9,VALID,0,
2012-10-12, 02:51:05,VALID,1008.62,VALID,0,VALID,104,VALID,0.112112,VALID,24.1014,VALID,9,VALID,0,
2012-10-12, 02:52:05,VALID,1008.63,VALID,0,VALID,104,VALID,0.112112,VALID,24.1209,VALID,9,VALID,0,
2012-10-12, 02:53:05,VALID,1008.61,VALID,0,VALID,104,VALID,0,VALID,24.1209,VALID,9,VALID,0,
2012-10-12, 02:54:05,VALID,1008.62,VALID,0,VALID,104,VALID,0.112112,VALID,24.1209,VALID,9,VALID,0,
2012-10-12, 02:55:05,VALID,1008.58,VALID,0,VALID,104,VALID,0.112112,VALID,24.1404,VALID,9,VALID,0,
2012-10-12, 02:56:05,VALID,1008.59,VALID,0,VALID,104,VALID,0.112112,VALID,24.1209,VALID,9,VALID,0,
2012-10-12, 02:57:05,VALID,1008.61,VALID,0,VALID,104,VALID,0.112112,VALID,24.1209,VALID,9,VALID,0,
2012-10-12, 02:58:05,VALID,1008.62,VALID,0,VALID,104,VALID,0.112112,VALID,24.1014,VALID,9,VALID,0,
2012-10-12, 02:59:05,VALID,1008.64,VALID,0,VALID,104,VALID,0.112112,VALID,24.1014,VALID,9,VALID,0,
2012-10-12, 03:00:05,VALID,1008.66,VALID,0,VALID,104,VALID,0,VALID,24.1014,VALID,9,VALID,0,
2012-10-12, 03:01:05,VALID,1008.68,VALID,0,VALID,104,VALID,0,VALID,24.0819,VALID,9,VALID,0,
2012-10-12, 03:02:05,VALID,1008.68,VALID,0,VALID,104,VALID,0.112112,VALID,24.0624,VALID,9,VALID,0,
2012-10-12, 03:03:05,VALID,1008.68,VALID,0,VALID,104,VALID,0,VALID,24.0624,VALID,9,VALID,0,
2012-10-12, 03:04:05,VALID,1008.68,VALID,0,VALID,104,VALID,0.112112,VALID,24.0624,VALID,9,VALID,0,
2012-10-12, 03:05:05,VALID,1008.67,VALID,0,VALID,104,VALID,0.112112,VALID,24.0624,VALID,9,VALID,0,
2012-10-12, 03:06:05,VALID,1008.65,VALID,0,VALID,104,VALID,0,VALID,24.0624,VALID,9,VALID,0,
2012-10-12, 03:07:05,VALID,1008.64,VALID,0,VALID,104,VALID,0.112112,VALID,24.0429,VALID,9,VALID,0,
2012-10-12, 03:08:05,VALID,1008.66,VALID,0,VALID,104,VALID,0.112112,VALID,24.0624,VALID,9,VALID,0,
2012-10-12, 03:09:05,VALID,1008.63,VALID,0,VALID,104,VALID,0,VALID,24.0624,VALID,9,VALID,0,
2012-10-12, 03:10:05,VALID,1008.63,VALID,0,VALID,104,VALID,0,VALID,24.0819,VALID,9,VALID,0,
2012-10-12, 03:11:05,VALID,1008.6,VALID,0,VALID,104,VALID,0,VALID,24.0819,VALID,9,VALID,0,
2012-10-12, 03:12:05,VALID,1008.62,VALID,0,VALID,104,VALID,0,VALID,24.0819,VALID,9,VALID,0,
2012-10-12, 03:13:05,VALID,1008.6,VALID,0,VALID,104,VALID,0.112112,VALID,24.0819,VALID,9,VALID,0,
2012-10-12, 03:14:05,VALID,1008.6,VALID,0,VALID,104,VALID,0.112112,VALID,24.0624,VALID,9,VALID,0,
2012-10-12, 03:15:05,VALID,1008.6,VALID,0,VALID,104,VALID,0,VALID,24.0819,VALID,9,VALID,0,
2012-10-12, 03:16:05,VALID,1008.61,VALID,0,VALID,104,VALID,0.112112,VALID,24.0819,VALID,9,VALID,0,
2012-10-12, 03:17:05,VALID,1008.63,VALID,0,VALID,104,VALID,0,VALID,24.0643,VALID,8,VALID,0,
2012-10-12, 03:18:05,VALID,1008.62,VALID,0,VALID,104,VALID,0,VALID,24.0429,VALID,9,VALID,0,
2012-10-12, 03:19:05,VALID,1008.62,VALID,0,VALID,104,VALID,0,VALID,24.0643,VALID,9,VALID,0,
2012-10-12, 03:20:05,VALID,1008.66,VALID,0,VALID,104,VALID,0,VALID,24.0643,VALID,8,VALID,0,
2012-10-12, 03:21:05,VALID,1008.64,VALID,0,VALID,104,VALID,0,VALID,24.0429,VALID,10,VALID,0.0515625,
2012-10-12, 03:22:05,VALID,1008.62,VALID,0,VALID,104,VALID,0,VALID,24.0235,VALID,9,VALID,0,
2012-10-12, 03:23:05,VALID,1008.64,VALID,0,VALID,104,VALID,0,VALID,24.0235,VALID,9,VALID,0,
2012-10-12, 03:24:05,VALID,1008.6,VALID,0,VALID,104,VALID,0,VALID,24.004,VALID,8,VALID,0,
2012-10-12, 03:25:05,VALID,1008.61,VALID,0,VALID,104,VALID,0,VALID,24.0253,VALID,9,VALID,0,
2012-10-12, 03:26:05,VALID,1008.62,VALID,0,VALID,104,VALID,0,VALID,24.0058,VALID,9,VALID,0,
2012-10-12, 03:27:05,VALID,1008.63,VALID,0,VALID,104,VALID,0,VALID,23.965,VALID,8,VALID,0,
2012-10-12, 03:28:05,VALID,1008.62,VALID,0,VALID,104,VALID,0,VALID,23.9863,VALID,8,VALID,0,
2012-10-12, 03:29:05,VALID,1008.63,VALID,0,VALID,104,VALID,0,VALID,23.9668,VALID,9,VALID,0,
2012-10-12, 03:30:04,VALID,1008.65,VALID,0,VALID,104,VALID,0,VALID,23.9473,VALID,8,VALID,0,
2012-10-12, 03:31:04,VALID,1008.66,VALID,0,VALID,104,VALID,0,VALID,23.926,VALID,9,VALID,0,
2012-10-12, 03:32:04,VALID,1008.66,VALID,0,VALID,104,VALID,0,VALID,23.926,VALID,8,VALID,0,
2012-10-12, 03:33:04,VALID,1008.66,VALID,0,VALID,104,VALID,0,VALID,23.9278,VALID,9,VALID,0,
2012-10-12, 03:34:04,VALID,1008.7,VALID,0,VALID,104,VALID,0,VALID,23.9084,VALID,8,VALID,0,
2012-10-12, 03:35:04,VALID,1008.7,VALID,0,VALID,104,VALID,0,VALID,23.9278,VALID,9,VALID,0,
2012-10-12, 03:36:04,VALID,1008.73,VALID,0,VALID,104,VALID,0,VALID,23.9278,VALID,9,VALID,0,
2012-10-12, 03:37:04,VALID,1008.73,VALID,0,VALID,104,VALID,0,VALID,23.9315,VALID,9,VALID,0,
2012-10-12, 03:38:04,VALID,1008.72,VALID,0,VALID,104,VALID,0,VALID,23.9102,VALID,8,VALID,0,
2012-10-12, 03:39:04,VALID,1008.76,VALID,0,VALID,104,VALID,0,VALID,23.8889,VALID,9,VALID,0,
2012-10-12, 03:40:04,VALID,1008.79,VALID,0,VALID,104,VALID,0,VALID,23.9102,VALID,9,VALID,0,
2012-10-12, 03:41:04,VALID,1008.82,VALID,0,VALID,104,VALID,0,VALID,23.8889,VALID,9,VALID,0,
2012-10-12, 03:42:04,VALID,1008.8,VALID,0,VALID,104,VALID,0,VALID,23.9102,VALID,9,VALID,0,
2012-10-12, 03:43:04,VALID,1008.83,VALID,0,VALID,104,VALID,0,VALID,23.8889,VALID,8,VALID,0,
2012-10-12, 03:44:04,VALID,1008.8,VALID,0,VALID,104,VALID,0,VALID,23.8499,VALID,9,VALID,0,
2012-10-12, 03:45:04,VALID,1008.83,VALID,0,VALID,104,VALID,0,VALID,23.8304,VALID,9,VALID,0,
2012-10-12, 03:46:04,VALID,1008.8,VALID,0,VALID,104,VALID,0,VALID,23.8109,VALID,8,VALID,0,
2012-10-12, 03:47:04,VALID,1008.79,VALID,0,VALID,104,VALID,0,VALID,23.8109,VALID,9,VALID,0,
2012-10-12, 03:48:04,VALID,1008.81,VALID,0,VALID,104,VALID,0,VALID,23.8109,VALID,8,VALID,0,
2012-10-12, 03:49:04,VALID,1008.82,VALID,0,VALID,104,VALID,0,VALID,23.7914,VALID,9,VALID,0,
2012-10-12, 03:50:04,VALID,1008.82,VALID,0,VALID,104,VALID,0,VALID,23.7932,VALID,9,VALID,0,
2012-10-12, 03:51:04,VALID,1008.83,VALID,0,VALID,104,VALID,0,VALID,23.772,VALID,9,VALID,0,
2012-10-12, 03:52:04,VALID,1008.83,VALID,0,VALID,104,VALID,0,VALID,23.772,VALID,8,VALID,0,
2012-10-12, 03:53:04,VALID,1008.84,VALID,0,VALID,104,VALID,0,VALID,23.7525,VALID,8,VALID,0,
2012-10-12, 03:54:04,VALID,1008.83,VALID,0,VALID,104,VALID,0,VALID,23.7525,VALID,9,VALID,0,
2012-10-12, 03:55:04,VALID,1008.85,VALID,0,VALID,104,VALID,0,VALID,23.7525,VALID,9,VALID,0,
2012-10-12, 03:56:04,VALID,1008.83,VALID,0,VALID,104,VALID,0,VALID,23.7348,VALID,9,VALID,0,
2012-10-12, 03:57:04,VALID,1008.82,VALID,0,VALID,104,VALID,0,VALID,23.694,VALID,9,VALID,0,
2012-10-12, 03:58:04,VALID,1008.84,VALID,0,VALID,104,VALID,0,VALID,23.6745,VALID,9,VALID,0,
2012-10-12, 03:59:04,VALID,1008.84,VALID,0,VALID,104,VALID,0,VALID,23.655,VALID,9,VALID,0,
2012-10-12, 04:00:04,VALID,1008.87,VALID,0,VALID,104,VALID,0,VALID,23.6356,VALID,9,VALID,0,
2012-10-12, 04:01:04,VALID,1008.88,VALID,0,VALID,104,VALID,0,VALID,23.6161,VALID,9,VALID,0,
2012-10-12, 04:02:04,VALID,1008.91,VALID,0,VALID,104,VALID,0,VALID,23.6161,VALID,9,VALID,0,
2012-10-12, 04:03:04,VALID,1008.9,VALID,0,VALID,104,VALID,0,VALID,23.5948,VALID,9,VALID,0,
2012-10-12, 04:04:04,VALID,1008.91,VALID,0,VALID,104,VALID,0,VALID,23.5948,VALID,9,VALID,0,
2012-10-12, 04:05:04,VALID,1008.93,VALID,0,VALID,104,VALID,0,VALID,23.5948,VALID,9,VALID,0,
2012-10-12, 04:06:04,VALID,1008.95,VALID,0,VALID,104,VALID,0,VALID,23.5771,VALID,9,VALID,0,
2012-10-12, 04:07:04,VALID,1008.94,VALID,0,VALID,104,VALID,0,VALID,23.5753,VALID,8,VALID,0,
2012-10-12, 04:08:04,VALID,1008.97,VALID,0,VALID,104,VALID,0,VALID,23.5558,VALID,9,VALID,0,
2012-10-12, 04:09:04,VALID,1008.95,VALID,0,VALID,104,VALID,0,VALID,23.5558,VALID,9,VALID,0,
2012-10-12, 04:10:04,VALID,1008.98,VALID,0,VALID,104,VALID,0,VALID,23.5753,VALID,9,VALID,0,
2012-10-12, 04:11:04,VALID,1009,VALID,0,VALID,104,VALID,0,VALID,23.5771,VALID,9,VALID,0,
2012-10-12, 04:12:04,VALID,1009.01,VALID,0,VALID,104,VALID,0.112112,VALID,23.5966,VALID,9,VALID,0,